Date et Heure ;Radiations Electromagnetiques (BF);Radiations Electromagnetiques (HF-Bq);Radiations ionisantes (Bq);Concentration SO2 (PPM);Concentration H2S (PPM);Concentration NO (PPM);Concentration CO2 (PPM);Concentration CO (PPM);Concentration NO2 (PPM);Concentration O3 (PPM);PM 1 ( μg/m3);PM 2,5 ( μg/m3);PM 10 ( μg/m3);Composants organiques Volatiles (PPM);Humidité (%);Pression (N/m²);Temperature (C°)
2019-01-29 10:00:00;72.79662451923079;17.34595883228606;9.576923076923077;-0.09315486437585559;-0.15462750544148646;-0.05334347771332686;154.573129070006;2.4742124325362562;0.17183931632121607;0.1550226967253155;0.20025469455035522;1.0234082019925008;4.436776882692306;-0.06043129179990097;31.042564102564103;998.990641025641;7.800448717948719
2019-01-29 11:00:00;75.66891705729167;-2.3787649897513012;9.851063829787234;-0.1837195410132156;0.08070310294039623;-0.06644520459534309;4.868755389669951;0.7158939577571282;0.12992636427137536;0.13114578936145108;0.19643266693532954;0.9960855190542288;4.069614194270834;-0.036241534323770544;32.0746875;997.6055729166668;6.3152083333333335
2019-01-29 12:00:00;75.74080572916665;-1.2716752669463522;10.7;-0.09578467278184126;0.015492990062613;-0.06931341220619439;-10.063546550775406;0.5177735556576748;0.11208966850731819;0.12490111731171415;0.15312504208446;0.8416543179426611;3.6406013895833342;-0.06125594262295087;31.729291666666672;996.0357916666665;6.308458333333335
2019-01-29 13:00:00;75.54324187500002;-1.5749612284055694;9.619565217391305;-0.10282897998653272;0.01949007679716843;-0.07258077955801652;-20.235855904850922;0.4613046045934498;0.11043747939988731;0.12591178439219222;0.08352154589830833;0.5901887075599316;2.6990169059782607;-0.06125594262295087;32.335543478260874;994.2575543478262;5.724130434782608
2019-01-29 14:00:00;75.30576493055554;-0.9916616268778923;10.330188679245284;-0.1667971993728102;0.026990978993003952;-0.10418634244844302;-1.0915505843295819;0.48390508069241434;0.11751299938343673;0.1523702723402652;0.1010619723406556;0.6297847262480837;2.926940245370371;-0.06125594262295087;37.96773148148149;992.4438425925927;4.903564814814815
2019-01-29 15:00:00;75.44980000000001;-1.6990858313984354;10.225;-0.10026643453828732;0.02214461892338702;-0.07802244482733518;-36.05247663085125;0.44148047986261957;0.12200163196339729;0.13962437636859798;0.09455565114290397;0.5792729684067168;2.5379495416666673;-0.062185049216920446;64.31931434852726;991.2530833333333;3.8789166666666675
2019-01-29 16:00:00;75.30810025000005;-3.5215658534041663;10.575;-0.10172131800294268;0.02454177733639446;-0.07810048853263553;-48.22836051604804;0.4493853583303619;0.11854732312039264;0.14166868520864856;0.12177614525003282;0.6644658564610648;2.8108508387500004;-0.06825997694672131;74.92997517837962;989.6740833333331;2.8757916666666663
2019-01-29 17:00:00;75.1178459375;0.1091426221317723;9.55;-0.10348699700648721;0.026029641059440074;-0.07814136827960007;-53.705414596325724;0.4403889385909759;0.11350290341425899;0.1398706901798903;0.09771585588258533;0.5772049581581394;2.545654511666667;-0.06979657631367095;86.03451120337566;988.4541666666664;2.4995833333333324
2019-01-29 18:00:00;74.92817364583337;1.1764093758427099;9.6;-0.10482476910866256;0.026082543521457873;-0.0779293584487532;-60.247771122165254;0.436026679238963;0.11389784187701528;0.14022079552090982;0.1431257830317677;0.7638426241374241;2.94962646625;-0.06983231118266978;90.80623996497727;987.1472499999998;1.9312083333333334
2019-01-29 19:00:00;74.80492943749998;-1.0024259632671861;10.275;-0.10588777993732713;0.02589334725626146;-0.07870193659613826;-66.57081244372333;0.4260490294268814;0.11254883899571255;0.14126152234113873;0.1734961164241833;0.939047453077995;3.3905161191666675;-0.06983231118266978;94.26038880598966;985.95925;1.50975
2019-01-29 20:00:00;74.62914654661017;7.397132954997353;11.186440677966102;-0.10857607355336894;0.024584695505886985;-0.0790468535593321;-67.85920945297894;0.41733420237072;0.11222044258924559;0.14090580676447356;0.15522148823287057;0.8354623941207907;3.03057139279661;-0.06983231118266978;95.548025784884;984.9419915254233;1.1313983050847458
2019-01-29 21:00:00;74.46774149999997;22.211204189224485;11.4;-0.11034251599473931;0.02415772768595741;-0.07766282102613468;-69.32688109145217;0.42010139747152875;0.11029667475125575;0.1431527634320072;0.13515664559291352;0.7948551404400349;2.83832990375;-0.0698680460516686;97.15879768352362;984.1958749999997;0.6337916666666666
2019-01-29 22:00:00;74.4479624166667;18.73808331628281;11.6;-0.10995064335874853;0.023532227748272776;-0.0776444186458878;-70.09686064200007;0.4191685044945377;0.11036737451295274;0.14246167726920586;0.20931753582742726;1.0030400648918187;3.35469509375;-0.0704398039556499;99.62362499285324;983.6915833333334;0.4795416666666667
2019-01-29 23:00:00;74.45078051229508;2.1439876366331974;10.868852459016393;-0.10744781256980816;0.02347151729799045;-0.07856787951050818;-76.78675032266432;0.4168997341626378;0.10780106104932557;0.1389378385697342;0.1648782707407571;0.902572059616141;2.9151172188524592;-0.07134372039606292;100.0;983.7440573770492;0.23454918032786878
2019-01-30 00:00:00;74.38501258333335;13.966681149224485;12.15;-0.11181992087525616;0.02273891185986236;-0.07809952606976595;-77.58710862818212;0.3834475436988308;0.11029626734191121;0.1364420920477346;0.11722858241006623;0.6586525149591416;2.108870867083333;-0.07261963096457853;100.0;983.9355833333333;-0.16308333333333336
2019-01-30 01:00:00;74.30884002083332;14.670455824931768;11.275;-0.11044611450770238;0.022515123361238544;-0.07725903611791193;-80.06270126764745;0.3577966351769024;0.10820317344694379;0.13462035618375873;0.10438696585878113;0.4833211954091306;1.282402232083333;-0.0746922533665106;100.0;984.4399999999998;-0.47854166666666653
2019-01-30 02:00:00;73.33754368644071;-2.677773655336332;11.440677966101696;-0.11081141950735478;0.022109386678467718;-0.07741347745059426;-89.58150721479961;0.3440309167944087;0.10757923023370637;0.1329094376480437;0.019452377756140875;0.1585511019123131;0.4874279978813557;-0.07742748503428537;100.0;985.0617372881353;-0.8544491525423724
2019-01-30 03:00:00;73.00069374999998;1.275123732003647;11.0;-0.11015333610150235;0.021711211897837843;-0.0779711352325945;-89.08330827345118;0.32771721295344497;0.10784609459917936;0.13642805258229732;0.025473016583924524;0.18889103249998254;0.5607268595833332;-0.07815853565939698;100.0;985.8490416666665;-0.9249583333333331
2019-01-30 04:00:00;74.30429799999997;1.1521344056859393;10.0;-0.10816244293934243;0.02152680891277871;-0.0778488290749095;-83.7381571696948;0.31620487378761236;0.10628294540037128;0.1368511894159089;0.019240017904941207;0.088106112825274;0.40088945250000013;-0.07819427052839582;100.0;987.282125;-0.4948333333333332
2019-01-30 05:00:00;74.24686804166667;0.7983658040098972;10.025;-0.10799578446196707;0.02098579224639114;-0.07822257848655602;-82.32976980019583;0.32208638964515396;0.10625446797553846;0.13721647562158265;0.07794595088139658;0.47236389847514587;1.8634314204166669;-0.07808706592139933;100.0;988.3928333333333;0.12600000000000003
2019-01-30 06:00:00;74.24687008333333;-2.334328366315103;9.75;-0.11218026352904083;0.01942133454067833;-0.0774853646214885;-80.09354987401983;0.32743263674064266;0.10790014428929444;0.14075643880863148;0.11729409305989326;0.6425673383924274;2.4864406483333337;-0.07805133105240053;100.0;989.4370833333331;0.5000416666666666
2019-01-30 07:00:00;74.18986781249997;-0.6756326873098945;10.85;-0.11556298019144375;0.017843909396567034;-0.07595170494877222;-78.5347214787342;0.321139903775799;0.10786170864534414;0.14142428988150618;0.06974121543431928;0.36266701590081557;1.9747911324999998;-0.078158535659397;99.62482013473375;990.6142499999999;0.6185416666666668
2019-01-30 08:00:00;74.1208833541667;3.036649351485937;9.95;-0.11725208638105908;0.016673638289013176;-0.0749115259462523;-77.62679860173638;0.31739578055623807;0.10480001054689225;0.14177202585586945;0.0745853772771086;0.4414810707688359;2.033830898333333;-0.07787265670740641;71.69130097641956;991.6062083333333;1.0029583333333336
2019-01-30 09:00:00;74.13042358333333;2.765374028398438;9.975;-0.11775206181318526;0.016274290793400554;-0.07260443576654645;-76.42993542331698;0.31096040557917065;0.1074472443542675;0.1415681721027439;0.06872287453452572;0.46153900800777253;2.2167312266666666;-0.07647899681645207;67.63670020044133;992.2075416666663;1.1846249999999998
2019-01-30 10:00:00;73.96704839583334;3.3602512563484397;9.75;-0.11200009220214846;0.01659271015532817;-0.07366941798018839;-70.82251819851312;0.3191044673649251;0.10933835785830381;0.1408003922747775;0.08432747703677855;0.5431180687178015;2.7158415875000004;-0.07340579808255278;86.50498457283001;992.6199166666665;1.8149166666666665
2019-01-30 11:00:00;74.30450631250001;1.6923668880864577;9.225;-0.10282486738015797;0.0149076424971069;-0.07464057240261662;-31.626168849573165;0.3691942989009114;0.09902096482854515;0.13193039557352088;0.08960619689443136;0.5078088289467482;2.3985411433333335;-0.06983231118266978;85.05579435797314;992.791875;5.001291666666668
2019-01-30 12:00:00;75.01493652083333;-2.0883151650859357;8.9;-0.10964435210303163;0.015568835735967037;-0.07155803961528241;37.20228696739423;0.3650929073570504;0.09807272203384226;0.1282642127381218;0.07212184575757871;0.39517115389176444;1.7715297454166667;-0.06940349275468383;71.731262915385;992.6615416666667;8.145249999999999
2019-01-30 13:00:00;74.94706533333331;-2.4534081283598956;10.525;-0.1298866006793818;0.017766554083863115;-0.06835289784145529;60.88820945538119;0.3051723197646509;0.11827114849892671;0.13436291558206237;0.03752629653077404;0.25630477608587776;1.206122637083333;-0.06818850720872367;65.50378397227438;992.5799583333336;8.257291666666667
2019-01-30 14:00:00;74.63241437500004;11.149445004258084;9.948275862068966;-0.12879380346199712;0.013779997750181554;-0.0699761424895032;37.68128819150026;0.304210853393333;0.12309180006741463;0.14014495341495714;0.034684848352996296;0.2653288095928862;1.1829259482758614;-0.06975837697094806;69.77061250676023;992.2059339080462;6.082341954022987
2019-01-30 15:00:00;74.54192479166663;0.7845856113421885;9.175;-0.1270939451125511;0.016380801326617626;-0.0710924714125447;-17.424380815478283;0.2831265630592525;0.12157006007919557;0.140306266524008;0.02947385457639191;0.14259925492756645;0.63223737375;-0.06983231118266978;76.52329600194552;991.7905833333334;4.448875
2019-01-30 16:00:00;74.58911122916666;1.924091770529167;10.325;-0.12330584296464045;0.011078663926305752;-0.07311233072376118;-7.669444172940716;0.34847745123137047;0.13518885801079253;0.16770268496455656;0.08996445196969607;0.4848232431212264;1.8687348670833333;-0.06983231118266978;78.63327034661576;991.4499583333334;3.942416666666667
2019-01-30 17:00:00;74.52020791666665;1.4579963997932301;10.3;-0.12307162023968048;0.014288915967938454;-0.07411648294885718;-13.18366041189139;0.3637799876465595;0.1344356005163903;0.16726420807904793;0.08982570475518978;0.4820602594880584;1.8582816450000001;-0.06983231118266978;82.80877197249809;991.2988750000003;3.4155416666666665
2019-01-30 18:00:00;74.48963847916667;1.1788965963317726;11.2;-0.11735568489402219;0.016160416591905726;-0.07597468286245035;-14.034385451670449;0.38080293014285427;0.13087496194851586;0.16386592242285208;0.15282404303659225;0.7255564135110427;2.367891470833333;-0.06983231118266978;87.98313842148872;991.3877916666664;3.11125
2019-01-30 19:00:00;74.49828393749999;-2.4258985759468734;9.875;-0.11739622344257294;0.017463400837603355;-0.0754980430913342;-14.118829601739348;0.3976223772896753;0.12795042551827965;0.15701130114271117;0.2239337344024746;1.140837842840915;3.7758576287499994;-0.07004672039666276;91.01113558884953;991.3585000000002;2.688874999999999
2019-01-30 20:00:00;74.46926147916666;-1.221468040724478;10.025;-0.11462608929160377;0.018345192791179833;-0.07697013272897714;-13.376780359483432;0.4032085081891629;0.12306359025366577;0.15411756831507453;0.2617883849871033;1.4753995304387806;5.341688630833332;-0.0698680460516686;91.20853647795471;991.416208333333;2.5884583333333353
2019-01-30 21:00:00;74.42234652083332;-0.4968964886739561;9.95;-0.11742324914160675;0.017662735309011975;-0.07692182619942238;-26.85573025348195;0.3499906750808476;0.11525703556699744;0.14317584413135856;0.12820906448132754;0.7806514447420632;2.550889880833334;-0.07033259934865341;67.15973198528887;991.3147916666671;2.536583333333334
2019-01-30 22:00:00;74.40507052083335;-2.997836731240103;10.85;-0.11864841416447443;0.01760838965498433;-0.0761913178217149;-25.39388085045454;0.35648810121661534;0.1178597978820621;0.14782430013157027;0.16126046140366748;0.8400259469122361;2.7357852337499997;-0.07008245526566159;67.49148951393606;991.5054583333332;2.1952500000000006
2019-01-30 23:00:00;74.44827052083332;-5.98315919254531;9.875;-0.11917541529563441;0.016906173063120908;-0.07627033169957621;-45.78978126465305;0.3246077523657899;0.11634963451050852;0.14072529291679384;0.13743050648362887;0.7216124791424255;2.3778966266666672;-0.07061847830064405;53.17825000000001;991.559833333333;1.5458749999999997
2019-01-31 00:00:00;74.48963577083333;-10.600095076014059;10.15;-0.11697732510754832;0.016703477867126906;-0.07718458566923414;-55.05423811114469;0.3149072947656924;0.11330881041861963;0.14312561749381364;0.12634893781630632;0.6758970997249257;2.4046669025;-0.07122597107362415;53.41091666666667;991.3802916666666;1.271
2019-01-31 01:00:00;74.39858879166668;-5.265862397160417;9.7;-0.1189772268360529;0.016729310969701424;-0.07687171695068398;-60.07449663965706;0.31352739770311916;0.11757653017670656;0.14284798365825357;0.21407053109029292;1.30148801713194;4.5850095091666665;-0.0725838960955797;54.04091666666666;991.4750833333334;0.8559166666666663
2019-01-31 02:00:00;74.43143919491533;-6.022388042051376;10.322033898305085;-0.11600585047419892;0.01804705734254861;-0.07769449640798941;-74.92284384997383;0.31252187307820284;0.11681418839088613;0.14381775019520998;0.24278935455621176;1.3491451911523962;5.028127250000002;-0.07462926308895335;57.368093220338984;991.6353813559322;0.3750847457627119
2019-01-31 03:00:00;74.49334618750001;-6.6689010703000005;9.9;-0.1144639350974007;0.017907667173955595;-0.07820002069685567;-78.00828825620725;0.30923928196953976;0.11434492909086588;0.14227401040051238;0.2373371748199476;1.37066456094097;4.878152422083332;-0.07537121587748837;57.89541666666667;991.4969999999997;0.07933333333333319
2019-01-31 04:00:00;74.44549366666664;-5.823592580844269;9.8;-0.11436934515078222;0.017707733497147125;-0.07846089558705646;-79.04164405755279;0.30657240427527593;0.11347920230223728;0.1425302857174088;0.20707851138700953;1.1292808333261053;3.742640688333333;-0.07605017838846612;57.08141666666666;991.3062083333333;0.15091666666666648
2019-01-31 05:00:00;74.42358422916666;-3.099369069863019;9.2;-0.11693678655899759;0.017057517441016582;-0.07760322861876369;-69.69685455432474;0.31482695500347635;0.11489810670965109;0.14788031252567083;0.21994763039089163;1.3818935232573053;4.89593527;-0.07608591325746494;55.40808333333334;991.1763333333332;0.49108333333333337
2019-01-31 06:00:00;74.36280025;-5.111622772827081;9.325;-0.12273379900175738;0.015916286971757346;-0.07509923109374657;-59.01183525606034;0.33152793357906774;0.1186071453096757;0.15938515855207064;0.29969425127563604;1.5014558341247624;5.582213954166666;-0.07644326194745325;55.15508333333333;991.1564583333334;0.5151666666666667
2019-01-31 07:00:00;74.29804650000004;-3.8303588092010403;10.575;-0.1270353894313111;0.015186837586520204;-0.07184576713650984;-52.31300955143274;0.3548078123459764;0.12465378150351536;0.17021786391010935;0.3509734025375994;1.7800569998560962;6.603676176666668;-0.07529974613949074;54.77962500000002;991.022458333333;0.48695833333333327
2019-01-31 08:00:00;74.31191577083337;-4.209980707408332;10.725;-0.1268372009717296;0.015127559788236374;-0.0713627530748737;-60.60214684903243;0.3538233381406497;0.124057632650237;0.16828050823957139;0.3079028530884585;1.644435167514127;6.630933359166667;-0.07669340603044507;54.23091666666665;990.5208333333335;0.28408333333333324
2019-01-31 09:00:00;74.34830831250002;-2.608237546122396;9.9;-0.125012966286945;0.015183938270066597;-0.07205076381362034;-65.00478428751089;0.34931041776236044;0.121106913871323;0.1654234654966102;0.23663391921024243;1.2838406571450822;4.9873141575;-0.07565709482947898;54.404166666666676;989.8848749999997;0.1253749999999999
2019-01-31 10:00:00;74.3905741666667;-2.216816748033854;10.175;-0.12167979673943743;0.015472330874955602;-0.07188642884350033;-62.177537017983255;0.34714209468720486;0.12109610745062417;0.16021886790005643;0.17930799741902842;0.9627511193171225;3.498986144999998;-0.07401329085553286;51.944208333333336;989.5104166666669;0.7195833333333334
2019-01-31 11:00:00;74.82495485416663;-2.868668592173957;10.725;-0.11885561119040061;0.01529240369177111;-0.07124896326586956;-54.4214835980549;0.37015138542693865;0.11416130865745618;0.1547550870291121;0.18391808436778614;1.0663587524318265;3.308646985833333;-0.07086862238363584;48.05654166666668;988.5029166666666;2.359541666666667
2019-01-31 12:00:00;75.74749870833332;-6.866989179699479;10.875;-0.12393644260876349;0.014953371125288493;-0.07138841379008733;-48.0900481370035;0.3607929608093503;0.11848897545389261;0.15620930568863386;0.1956475336297217;1.0308244800287942;3.331346984166666;-0.06983231118266978;43.35816666666666;987.3487083333335;3.852291666666667
2019-01-31 13:00:00;75.78815262499997;-7.656790267212502;9.575;-0.12519313761383735;0.014135486351110742;-0.07127527365356648;-46.846251031735726;0.3639258580295806;0.1233142505311469;0.16100976909289216;0.24153573958530747;1.0865137842287693;3.4775859466666663;-0.06983231118266978;43.38349999999999;986.1112499999997;4.053374999999998
2019-01-31 14:00:00;74.9109761016949;-4.88901029576271;9.864406779661017;-0.12327988607856273;0.014211940856061497;-0.07301066467222608;-51.91527194289127;0.3626612030878537;0.12515634199643413;0.16071745772125973;0.17436411081333314;0.9698920036697205;3.2850956627118637;-0.06983231118266978;44.767542372881344;984.227627118644;3.6478813559322028
2019-01-31 15:00:00;74.8742658541667;-3.07656399973906;10.65;-0.12440488805868351;0.014202394451059624;-0.07324944950099305;-54.22167663743871;0.3714284005640361;0.13000012424928425;0.1689915213046279;0.1558006477443527;0.8214027139286166;2.8111240454166673;-0.06983231118266978;46.36579166666666;982.7864583333333;3.312416666666666
2019-01-31 16:00:00;74.85135127083336;-3.021122516453645;9.3;-0.12381032267993894;0.014981788531908284;-0.07481286755246244;-57.086558737654926;0.3824969089825524;0.13121412075677918;0.16944242187918582;0.12879744338171129;0.7506258685877009;2.6826731604166665;-0.06983231118266978;50.650166666666664;981.4751250000004;2.8632499999999994
2019-01-31 17:00:00;74.82782802083331;-5.391227864438021;10.85;-0.12159871964233587;0.01639104920033494;-0.07542548103852638;-60.393280723898144;0.39022472291495786;0.1311479523538424;0.16738273506266882;0.14127728689203228;0.8468837799273591;3.086041080833333;-0.06983231118266978;81.78843729877059;980.0329583333332;2.4251666666666667
2019-01-31 18:00:00;74.71830902083337;-0.799577526042708;10.55;-0.12017536615988669;0.017836208527575285;-0.07625405598250032;-62.97187238178773;0.3971136112543015;0.13091243486743143;0.169261015072231;0.19268788074974472;1.0363427633010878;3.5930450979166664;-0.0699752506586651;92.67227352539076;978.5275416666666;1.944875
2019-01-31 19:00:00;74.61814210416667;4.6924063063854184;11.025;-0.1188556111904006;0.01873266534524147;-0.07723120680350334;-61.855321983235235;0.4118124660985778;0.13187309574405445;0.16941907761679517;0.27898617726041913;1.4437154657147944;5.264889700416665;-0.07058274343164522;99.25375729961682;977.8165416666665;1.6644166666666667
2019-01-31 20:00:00;74.28363239583335;2.1133643443020844;9.775;-0.11699984652340986;0.01916237643083506;-0.0772592955967166;-53.177431265816736;0.4193265894927839;0.12717125406333793;0.1627349963824716;0.28756354665435363;1.3977807519375203;4.9723542924999995;-0.07154758489461364;99.99745715321677;977.3365833333334;2.0504583333333337
2019-01-31 21:00:00;74.46123393750001;1.1564887763942726;10.525;-0.11588728857984991;0.018928029785190408;-0.07725038104299818;-45.78167241461824;0.41506273376649977;0.1259872623954046;0.16416931927509953;0.2936607136977865;1.519882143979168;5.234791883333338;-0.07097582699063235;99.92896544256617;977.5517916666665;2.7540000000000004
2019-01-31 22:00:00;74.39737237500003;5.5606854857375;10.775;-0.11171632236229309;0.018895313467839802;-0.0781821283155967;-48.21852937670863;0.3860177931732131;0.11957021229500178;0.1498336264247831;0.14742142952989654;0.8136286326350588;2.6863379762499995;-0.07065421316964286;97.69721777493486;978.519583333333;3.526583333333333
2019-01-31 23:00:00;74.4451909375;1.2045815885010431;11.0;-0.11576567293419764;0.018338910332656534;-0.07694006279848206;-44.2226339266112;0.35998566498775925;0.11670337413269816;0.14373421417310886;0.12016554533935886;0.6279552421726785;2.3634400649999994;-0.07008245526566159;91.97160802002212;979.474416666667;4.042375000000001
2019-02-01 00:00:00;74.43284002083332;-1.4390682477078116;10.5;-0.1165629310556961;0.017254851286824708;-0.07670649793990321;-44.44928556094984;0.3477701933449741;0.11473293708629922;0.1461249099612947;0.11535896892118164;0.5929653753154324;2.681825697083333;-0.07004672039666276;90.09744526483377;980.3972916666665;4.065250000000001
2019-02-01 01:00:00;74.41956791666665;-0.9980005060640611;10.75;-0.11892767972115752;0.016384490628945644;-0.07647672029918959;-38.04888576365833;0.35432938111971674;0.11936001082393409;0.15485316470445748;0.10404660614636306;0.5630850566228741;2.7099735554166666;-0.07040406908665106;90.36714574693124;980.6162916666665;3.9124583333333347
2019-02-01 02:00:00;74.48267408898306;-3.0017715564639826;9.584745762711865;-0.11803506821521483;0.016111661593018772;-0.07637071153299911;-27.8084758068838;0.38598239421256864;0.12001086682064585;0.1565874569778861;0.09573236107198028;0.5735228984997709;3.0078709012711853;-0.06986865172741435;89.80777109399499;980.4533474576269;4.039576271186438
2019-02-01 03:00:00;74.52575864406774;1.3182550145572047;10.601694915254237;-0.12050402614390003;0.01572809149351962;-0.07615106195092754;-29.321342314165133;0.3624791939619137;0.11914108157036706;0.1552776815999836;0.1535103468286208;0.7701125275720548;4.293795510169492;-0.0699413328169035;89.6812859009177;980.2022881355931;3.9676694915254247
2019-02-01 04:00:00;74.49087547916666;4.607523374356773;10.775;-0.11731064206229914;0.015005721611613827;-0.07660719263606469;-22.104085040261634;0.3572219035565812;0.12342767885176245;0.1593677668638642;0.14441580664311812;0.8193195634355533;4.755993277500001;-0.06990378092066744;93.30048893592559;980.4330000000003;4.130208333333333
2019-02-01 05:00:00;74.49488887499999;-2.4462120902963513;11.175;-0.1213059412361359;0.01389728389508965;-0.07585810565641352;-11.990144339238434;0.35926870281195494;0.1265537553061785;0.16375470508756348;0.12927512557807944;0.9125622364847558;5.0684270975;-0.06983231118266978;93.04667134332426;980.4489166666665;4.679583333333332
2019-02-01 06:00:00;74.49563214622647;-4.440695382001473;10.65566037735849;-0.12535231728141719;0.013735428776342847;-0.0734812122916354;-0.5238626839035654;0.38094045150807115;0.12995935633188543;0.17019530588571644;0.17361715529174893;1.0216707169166843;5.444532878066039;-0.06983231118266976;91.64748028869502;980.4374056603774;5.051037735849061
2019-02-01 07:00:00;74.4561507604167;-2.9092052576151013;9.975;-0.12775607473888034;0.013947050737346329;-0.0693808101596652;-2.7213912991031903;0.39665059105281525;0.12975560819174856;0.1751537502705758;0.18563718187038217;1.0546721385376585;5.192711181041664;-0.0698323111826698;90.9107684762579;980.6532500000002;4.962395833333332